Location: Bannatyne
(13.0833°N, 59.5333°W)
Time: 04:32:45
(UTC+00:00)

Explorer 11/Cluster Stage 4 - Visible Passes

Search period start: 29 January 2020 00:00
Search period end: 08 February 2020 00:00
Orbit: 467 x 1259 km, 28.8° (Epoch: 28 January)

Date Brightness Start Highest point End Pass type
(mag) Time Alt. Az. Time Alt. Az. Time Alt. Az.
29 Jan 8.2 23:33:31 10° W 23:39:31 35° SW 23:43:20 16° SSE visible
30 Jan 8.6 23:22:50 10° W 23:28:42 30° SW 23:33:38 10° SSE visible
31 Jan 8.9 23:12:12 10° W 23:17:52 26° SW 23:22:44 10° SSE visible
01 Feb 9.2 23:01:39 10° W 23:07:02 22° SW 23:11:44 10° SSE visible
02 Feb 9.4 22:51:14 10° WSW 22:56:12 19° SW 23:00:38 10° S visible
03 Feb 8.7 09:54:41 10° S 09:57:55 19° SE 10:01:38 10° E visible
03 Feb 9.5 22:40:56 10° WSW 22:45:21 16° SW 22:49:23 10° S visible
04 Feb 8.4 09:43:47 10° SSW 09:47:13 23° SE 09:51:12 10° E visible
04 Feb 9.7 22:30:51 10° WSW 22:34:31 14° SW 22:37:56 10° S visible
05 Feb 8.0 09:32:58 10° SSW 09:36:31 28° SE 09:40:41 10° E visible
05 Feb 9.9 22:21:10 10° SW 22:23:41 12° SW 22:26:08 10° SSW visible
06 Feb 7.4 09:22:14 10° SW 09:25:51 34° SSE 09:30:07 10° E visible
07 Feb 6.8 09:12:17 15° SW 09:15:13 44° SSE 09:19:30 10° ENE visible
